Location: Cosy Dell
(34.2789°N, 117.4537°W)
Time: 20:52:29
(UTC+00:00)

Cosmos 1844 Rocket - Pass Details

Date: 14 July 2020
Orbit: 826 x 843 km, 71.0° (Epoch: 13 August)

Event Time Altitude Azimuth Distance (km) Brightness Sun altitude
Rises 03:19:44 0° 341° (NNW) 3,368 6.7 -3.9°
Reaches altitude 10° 03:22:11 10° 344° (NNW) 2,431 5.8 -4.3°
Maximum altitude 03:27:44 69° 68° (ENE) 884 2.7 -5.3°
Drops below altitude 10° 03:33:16 10° 151° (SSE) 2,423 4.6 -6.3°
Enters shadow 03:34:59 - 153° (SSE) 3,077 5.1 -6.6°
